TimeEST,TemperatureF,Dew PointF,Humidity,Sea Level PressureIn,VisibilityMPH,Wind Direction,Wind SpeedMPH,Gust SpeedMPH,PrecipitationIn,Events,Conditions,WindDirDegrees,DateUTC
12:53 AM,78.1,72.0,81,30.01,10.0,ESE,3.5,-,N/A,,Mostly Cloudy,110,2012-12-10 05:53:00
1:42 AM,78.8,71.6,78,30.00,6.0,ESE,4.6,-,0.01,Rain,Light Rain,110,2012-12-10 06:42:00
1:53 AM,77.0,72.0,84,30.00,10.0,ESE,4.6,-,0.01,,Mostly Cloudy,120,2012-12-10 06:53:00
2:05 AM,77.0,71.6,83,30.00,9.0,ESE,4.6,-,N/A,,Scattered Clouds,120,2012-12-10 07:05:00
2:53 AM,77.0,72.0,84,29.98,9.0,SE,5.8,-,N/A,,Scattered Clouds,130,2012-12-10 07:53:00
3:53 AM,77.0,72.0,84,29.97,10.0,SE,4.6,-,N/A,,Clear,140,2012-12-10 08:53:00
4:53 AM,77.0,72.0,84,29.96,9.0,SE,4.6,-,N/A,,Scattered Clouds,130,2012-12-10 09:53:00
5:53 AM,78.1,72.0,81,29.97,10.0,Variable,5.8,-,N/A,,Scattered Clouds,0,2012-12-10 10:53:00
6:53 AM,78.1,72.0,81,29.99,10.0,SE,5.8,-,N/A,,Scattered Clouds,140,2012-12-10 11:53:00
7:53 AM,78.1,73.0,84,29.99,9.0,SE,6.9,-,N/A,,Clear,140,2012-12-10 12:53:00
8:53 AM,80.1,73.0,79,30.01,10.0,SE,6.9,-,N/A,,Partly Cloudy,130,2012-12-10 13:53:00
9:53 AM,82.0,73.0,74,30.00,10.0,SE,5.8,-,N/A,,Partly Cloudy,140,2012-12-10 14:53:00
10:53 AM,82.9,73.0,72,30.01,10.0,SSE,6.9,-,N/A,,Partly Cloudy,150,2012-12-10 15:53:00
11:15 AM,82.4,73.4,74,30.00,10.0,SSE,8.1,-,N/A,,Mostly Cloudy,150,2012-12-10 16:15:00
11:53 AM,82.9,73.0,72,29.98,10.0,SSE,6.9,-,N/A,,Clear,150,2012-12-10 16:53:00
12:53 PM,84.0,73.0,69,29.95,10.0,SSE,10.4,-,N/A,,Clear,160,2012-12-10 17:53:00
1:53 PM,84.0,73.0,69,29.94,10.0,SSE,8.1,-,N/A,,Partly Cloudy,160,2012-12-10 18:53:00
2:53 PM,84.0,73.0,69,29.93,10.0,South,6.9,-,N/A,,Clear,170,2012-12-10 19:53:00
3:53 PM,82.9,73.0,72,29.92,10.0,SSE,4.6,-,N/A,,Scattered Clouds,160,2012-12-10 20:53:00
4:53 PM,81.0,73.0,77,29.92,10.0,SSE,5.8,-,N/A,,Clear,150,2012-12-10 21:53:00
5:53 PM,80.1,73.0,79,29.93,10.0,SE,4.6,-,N/A,,Clear,130,2012-12-10 22:53:00
6:53 PM,79.0,73.0,82,29.93,10.0,SE,5.8,-,N/A,,Clear,130,2012-12-10 23:53:00
7:53 PM,79.0,73.0,82,29.94,10.0,ESE,8.1,-,N/A,,Clear,120,2012-12-11 00:53:00
8:53 PM,79.0,73.0,82,29.96,9.0,SE,5.8,-,N/A,,Partly Cloudy,130,2012-12-11 01:53:00
9:53 PM,79.0,73.0,82,29.98,9.0,SE,5.8,-,N/A,,Overcast,140,2012-12-11 02:53:00
10:12 PM,78.8,73.4,83,29.98,9.0,SE,6.9,-,N/A,,Overcast,130,2012-12-11 03:12:00
10:53 PM,79.0,73.0,82,29.96,9.0,SE,8.1,-,N/A,,Mostly Cloudy,140,2012-12-11 03:53:00
11:53 PM,79.0,73.0,82,29.98,9.0,SSE,5.8,-,N/A,,Mostly Cloudy,160,2012-12-11 04:53:00